Regional Weather Roundup
Issued by NWS

Home | Current Version | Previous Version | Graphics & Text | Print | Product List | Glossary On
Versions: 1 2 3 4 5 6 7 8 9 10 11 12 13 14 15 16 17 18 19 20 21 22 23 24 25 26 27 28 29 30 31 32 33 34 35 36 37 38 39 40 41 42 43 44 45 46 47 48 49 50
000
ASUS43 KMKX 280400
RWRWI

WISCONSIN REGIONAL WEATHER ROUNDUP
NATIONAL WEATHER SERVICE MILWAUKEE/SULLIVAN WI
1100 PM CDT MON MAR 27 2017

NOTE: "FAIR" INDICATES FEW OR NO CLOUDS BELOW 12,000 FEET WITH NO
SIGNIFICANT WEATHER AND/OR OBSTRUCTIONS TO VISIBILITY.

WIZ001-002-006>008-014>016-023>028-280500-
NORTHWEST WISCONSIN

CITY           SKY/WX    TMP DP  RH WIND       PRES   REMARKS
SUPERIOR ARPT  CLEAR     29  29  99 CALM      30.04S
ASHLAND        FOG       28  27  96 CALM      30.05S VSB 3/4
HAYWARD        CLEAR     34  28  79 N5        30.03R WCI  30
SIREN          CLEAR     41  31  66 CALM      30.03R
CUMBERLAND     CLEAR     39  32  75 NE5       30.01R
RICE LAKE      CLEAR     35  34  94 CALM      30.03R
CHETEK         CLEAR     33  32  99 CALM      30.02R
LADYSMITH      CLEAR     38  32  78 NE8       30.03R WCI  32
EAU CLAIRE     NOT AVBL
MENOMONIE      CLEAR     36  35  94 CALM      30.02R
NEW RICHMOND   CLEAR     36  36  97 CALM      30.02R
OSCEOLA        CLEAR     37  32  82 CALM      30.04R
$$

WIZ003>005-009-010-017-018-280500-
NORTH CENTRAL WISCONSIN

CITY           SKY/WX    TMP DP  RH WIND       PRES   REMARKS
MANITOWISH WTR CLEAR     30  30 100 CALM      30.01S
ARBOR VITAE    CLEAR     34  30  85 N3        30.00S
WOODRUFF       CLEAR     34  30  85 N3        30.00S
RHINELANDER    CLEAR     35  31  85 CALM      30.01R
EAGLE RIVER    CLEAR     29  29 100 CALM      30.01R
LAND O LAKES   MOCLDY    32  30  93 CALM      30.02S
PHILLIPS       CLEAR     31  29  93 CALM      30.01R
TOMAHAWK       CLEAR     27  26  96 CALM      30.02R
MEDFORD        FOG       31  31  99 CALM      30.00R VSB 1/4
MERRILL        FOG       28  28 100 CALM      30.01R VSB 1/2
$$

WIZ029-030-035-036-043>047-280500-
CENTRAL WISCONSIN

CITY           SKY/WX    TMP DP  RH WIND       PRES   REMARKS
WAUSAU         PTCLDY    33  33 100 CALM      30.00R
MOSINEE        CLEAR     36  36 100 N3        30.01R
MARSHFIELD     CLEAR     36  34  92 CALM      29.99R
STEVENS POINT  CLOUDY    35  35 100 CALM      30.01R FOG
WAUPACA        CLOUDY    42  41  97 CALM      30.01S FOG
WAUTOMA        CLOUDY    41  40  96 N3        30.02R
WISC RAPIDS    MOCLDY    39  39 100 CALM      30.01S
CAMP DOUGLAS   CLOUDY    41  39  93 CALM      30.00S
$$

WIZ011>013-019>022-031-037>040-048>050-280500-
NORTHEAST WISCONSIN

CITY           SKY/WX    TMP DP  RH WIND       PRES   REMARKS
ANTIGO         CLEAR     33  33 100 CALM      30.01R
SHAWANO        CLOUDY    40  37  86 CALM      30.01S
OCONTO         CLOUDY    37  34  90 CALM      30.01S
STURGEON BAY   CLOUDY    38  36  92 N3        30.00R
GREEN BAY      CLOUDY    39  38  96 CALM      30.01S
MANITOWOC      NOT AVBL
APPLETON       CLOUDY    39  37  93 CALM      29.99S
CLINTONVILLE   CLOUDY    39  37  93 CALM      30.01R
OSHKOSH        CLOUDY    40  36  86 NE3       30.00S
$$

WIZ032>034-041-042-053>061-280500-
SOUTHWEST WISCONSIN

CITY           SKY/WX    TMP DP  RH WIND       PRES   REMARKS
LA CROSSE      CLOUDY    44  39  82 NW6       30.01S
SPARTA         CLOUDY    42  39  88 CALM      30.02R
VIROQUA        CLOUDY    42  42  99 CALM      29.99R
BOSCOBEL       CLOUDY    47  44  90 N3        30.00R
PRAIRIE DU CHI CLOUDY    45  43  95 NW3       30.00R
PLATTEVILLE    CLOUDY    46  46 100 CALM      29.99R
$$

WIZ056-057-062-063-064-067-068-280500-
SOUTH CENTRAL WISCONSIN

CITY           SKY/WX    TMP DP  RH WIND       PRES   REMARKS
REEDSBURG      CLOUDY    43  43 100 N3        29.99S
BARABOO/DELLS  CLOUDY    43  42  94 NE6       29.99S FOG
LONE ROCK      NOT AVBL
MINERAL POINT  CLOUDY    45  45 100 CALM      29.98S FOG
MADISON        CLOUDY    44  42  93 NE10      29.99R FOG
MIDDLETON      CLOUDY    46  46 100 NE5       29.99S
WATERTOWN      CLOUDY    41  41 100 E3        29.99S
MONROE         CLOUDY    45  43  93 N5        29.97S FOG
JANESVILLE     CLOUDY    46  46 100 N3        29.98R
$$

WIZ051-052-058>065-066-070>072-280500-
SOUTHEAST WISCONSIN

CITY           SKY/WX    TMP DP  RH WIND       PRES   REMARKS
MILWAUKEE      CLOUDY    39  36  89 N6        30.00R FOG     WCI  35
WAUKESHA       CLOUDY    36  34  93 NE6       30.00S FOG     WCI  31
MILWAUKEE/TIMM CLOUDY    36  34  93 N3        30.01S
RACINE         CLOUDY    38  35  89 N7        30.01R WCI  33
KENOSHA        CLOUDY    39  36  89 NE8       29.99R WCI  33
FOND DU LAC    CLOUDY    41  36  82 NE6       30.00S
SHEBOYGAN      CLOUDY    37  34  89 CALM      30.01S
WEST BEND      CLOUDY    37  36  93 NE5       30.00S WCI  34
JUNEAU         CLOUDY    41  40  95 E5        30.00S FOG
$$

LSZ147-162-280500-
LAKE SUPERIOR

STATION/POSITION TIME  TEMP    WIND        PRES    WAVE
                       AIR SEA DIR/SP/G            HT/PER
                 (UTC) (F)     (DEG/KT/KT) (MB)    (FT/S)
DEVILS ISLAND    0300   37      30/  1/  1 1018.0R
PORT WING        0340   31     130/  2/  4 1017.6R
SAXON HARBOR     0330   29     190/  3/  3 1017.3R
$$

LMZ867-665-643>646-280500-
LAKE MICHIGAN

STATION/POSITION TIME  TEMP    WIND        PRES    WAVE
                       AIR SEA DIR/SP/G            HT/PER
                 (UTC) (F)     (DEG/KT/KT) (MB)    (FT/S)
CHAMBERS ISLAND  0340   34      CALM  /  1 1016.3R
NORTHPORT PIER   0340   36     320/  3/  4 1016.6R
KEWAUNEE LAKESHO 0330   37      CALM  /  1 1015.9R
SHEBOYGAN LAKESH 0300   37     330/  5/  5 1016.4R
PORT WASHINGTON  0330   38     350/  3/  5 1017.3R
MILWAUKEE LAKESH 0330   38     360/  5/  6   N/A
KENOSHA   LAKESH 0300   38      20/  6/  7 1015.6
$$

TC  - TEMPERATURE IN CELSIUS
VSB - VISIBILITY IN STATUTE MILES
WCI - WIND CHILL INDEX
HX  - HEAT INDEX




USA.gov is the U.S. government's official web portal to all federal, state and local government web resources and services.